Welcome to the New NWS' Forecast!
Most changes are behind the scenes, but click here for differences you might notice.
Latest weather observations around

Monticello, Monticello Municipal Airport/Ellis Field (KLLQ)

Using English Units (Switch to International System of Units)
Date/ Time (CDT) Wind (mph) Vis. (mi) Weather Sky Cond. Temp (°F) Rel. Humidity Wind Chill (°F) Heat Index (°F) Pressure Precip. (in)
Air Dwpt 6 hour Altimeter (inHg) Sea level (inHg) 1 hr 3 hr 6 hr
Max Min
Oct 20 08:53 ESE 3 10 Clear CLR 59 55     87%     30.22 30.22      
Oct 20 07:53 ESE 3 10 Clear CLR 55 52     89%     30.2 30.19      
Oct 20 06:53 Calm 10 Clear CLR 53 50     89%     30.2 30.19      
Oct 20 05:53 Calm 9 Clear CLR 51 48     89%     30.2 30.19      
Oct 20 04:53 Calm 10 Clear CLR 53 50     89%     30.18 30.17      
Oct 20 03:53 Calm 10 Clear CLR 55 51     86%     30.18 30.17      
Oct 20 02:53 Calm 10 Clear CLR 54 51     90%     30.18 30.17      
Oct 20 01:53 Calm 7 Clear CLR 53 51     93%     30.18 30.18      
Oct 20 00:53 Calm 10 Clear CLR 55 52     89%     30.19 30.18      
Oct 19 23:53 Calm 10 Clear CLR 56 53     90%     30.19 30.18      
Oct 19 22:53 Calm 10 Clear CLR 55 52     89%     30.2 30.19      
Oct 19 21:53 Calm 9 Clear CLR 58 54     87%     30.19 30.18      
Oct 19 20:53 Calm 9 Clear   59 55     87%     30.18 30.17      
Oct 19 19:53 Calm 8 Clear CLR 60 56     86%     30.18 30.17      
Oct 19 18:53 Calm 10 Clear CLR 64 58     81%     30.17 30.16      
Oct 19 17:53 Calm 10 Clear CLR 71 57     61%   71 30.16 30.16      
Oct 19 16:53 ESE 6 10 Clear CLR 77 53     43%   76 30.16 30.15      
Oct 19 15:53 5 10 Clear CLR 79 52     39%   78 30.17 30.16      
Oct 19 14:53 3 10 Clear CLR 77 53     43%   76 30.18 30.17      
Oct 19 12:53 E 3 10 Clear CLR 76 54     47%   75 30.23 30.22      
Oct 19 11:53 5 10 Clear CLR 72 57     59%   72 30.25 30.25      
Oct 19 10:53 SE 5 10 Clear CLR 67 55     66%     30.26 30.26      
Oct 19 09:53 SSE 5 10 Clear CLR 62 51     67%     30.26 30.25      
Oct 19 08:53 Calm 10 Clear   58 50     75%     30.25 30.24      
Oct 19 07:53 Calm 10 Clear CLR 50 46     86%     30.23 30.23      
Oct 19 06:53 Calm 10 Clear CLR 47 44     90%     30.21 30.21      
Oct 19 05:53 Calm 10 Clear CLR 47 44     90%     30.21 30.2      
Oct 19 04:53 Calm 10 Clear CLR 48 46     93%     30.19 30.19      
Oct 19 03:53 Calm 10 Clear CLR 49 46     90%     30.18 30.17      
Oct 19 02:53 S 6 10 Clear CLR 56 48     75%     30.18 30.17      
Oct 19 01:53 S 5 10 Clear CLR 58 48     70%     30.17 30.16      
Oct 19 00:53 SSE 5 10 Clear CLR 58 48     70%     30.18 30.17      
Oct 18 23:53 SSE 5 10 Clear CLR 56 49     77%     30.19 30.18      
Oct 18 22:53 ESE 3 10 Clear CLR 56 50     80%     30.19 30.19      
Oct 18 21:53 Calm 10 Clear CLR 57 51     81%     30.18 30.18      
Oct 18 20:53 Calm 10 Clear CLR 57 52     83%     30.18 30.18      
Oct 18 19:53 Calm 10 Clear CLR 59 54     83%     30.18 30.17      
Oct 18 18:53 Calm 10 Clear   64 55     73%     30.16 30.16      
Oct 18 17:53 E 3 10 Clear CLR 74 53     48%   73 30.16 30.15      
Oct 18 16:53 SE 5 10 Clear CLR 77 48     36%   76 30.16 30.15      
Oct 18 15:53 ESE 7 10 Clear CLR 77 48     36%   76 30.16 30.15      
Oct 18 14:53 S 6 10 Clear CLR 75 49     40%   74 30.17 30.16      
Oct 18 13:53 SE 8 10 Clear CLR 74 50     43%   73 30.19 30.18      
Oct 18 12:53 S 3 10 Clear CLR 72 50     46%   71 30.22 30.22      
Oct 18 11:53 3 10 Clear CLR 71 50     47%   70 30.25 30.24      
Oct 18 10:53 SE 6 10 Clear CLR 68 50     53%     30.26 30.25      
Oct 18 09:53 SE 6 10 Clear CLR 63 51     65%     30.26 30.25      
Oct 18 08:53 SE 6 10 Mostly Clear FEW002 56 49     77%     30.25 30.24      
Oct 18 07:53 Calm 10 Clear CLR 47 43     86%     30.23 30.22      
Oct 18 06:53 SSE 3 10 Clear CLR 48 44     86% 47   30.22 30.21      
Oct 18 05:53 SSE 3 10 Clear CLR 49 45     86% 48   30.22 30.22      
Oct 18 04:53 SSE 3 10 Clear CLR 48 44     86% 47   30.21 30.21      
Oct 18 01:53 Calm 10 Clear CLR 49 45     86%     30.21 30.21      
Oct 18 00:53 Calm 10 Clear CLR 49 46     90%     30.22 30.22      
Oct 17 23:53 Calm 10 Clear CLR 49 46     90%     30.22 30.22      
Oct 17 22:53 Calm 10 Clear CLR 49 46     90%     30.22 30.22      
Oct 17 21:53 Calm 10 Clear CLR 51 48     89%     30.22 30.21      
Oct 17 20:53 Calm 10 Clear CLR 51 48     89%     30.2 30.2      
Oct 17 19:53 Calm 10 Clear CLR 55 49     80%     30.2 30.19      
Oct 17 18:53 Calm 10 Clear CLR 61 49     64%     30.19 30.19      
Oct 17 17:53 Calm 10 Clear CLR 71 47     42%   70 30.19 30.19      
Oct 17 16:53 ENE 6 10 Clear CLR 73 41     31%   72 30.2 30.19      
Oct 17 15:53 NE 6 10 Clear CLR 74 40     29%   72 30.21 30.21      
Oct 17 14:53 ENE 6 10 Clear CLR 73 40     30%   71 30.23 30.22      
Oct 17 13:53 5 10 Clear CLR 72 40     31%   70 30.25 30.25      
Oct 17 12:53 ENE 8 10 Clear CLR 69 41     36%     30.29 30.28      
Oct 17 11:53 3 10 Clear CLR 67 42     40%     30.32 30.31      
Oct 17 10:53 ENE 8 10 Clear CLR 64 44     48%     30.33 30.32      
Oct 17 09:53 ENE 8 10 Clear CLR 60 46     60%     30.35 30.34      
Oct 17 08:53 NE 8 10 Clear CLR 53 45     74%     30.33 30.33      
Jun 12 05:48 SSE 7 10 Cloudy OVC009 75 73     94%   77 30.03        
Jun 12 03:11 SE 3 10 Cloudy OVC009 74 71     91%   75 30        
Jun 11 22:53 SSE 6 10 Clear CLR 76 70     82%   77 30.02 30.01      
Jun 11 14:53 5 10 Mostly Clear FEW039 88 69     54%   92 30.02 30.01      
Jun 11 01:53 SSE 5 10 Clear CLR 70 64     81%     29.99        
Jun 08 02:53 3 10 Clear CLR 63 56     78%     29.95 29.94      
Jun 07 21:53 Calm 10 Clear CLR 67 59     76%     29.95 29.94      
Jun 07 20:53 NNW 3 10 Clear CLR 68 60     76%     29.94 29.93      
Jun 07 10:53 NE 13 10 Clear CLR 80 56     44%   80 29.95 29.94      
Jun 06 12:26 ENE 18 10 Partly Cloudy FEW019 SCT025 82 72     72%   87 29.79